Regional Weather Roundup
Issued by NWS

Home | Current Version | Previous Version | Graphics & Text | Print | Product List | Glossary On
Versions: 1 2 3 4 5 6 7 8 9 10 11 12 13 14 15 16 17 18 19 20 21 22 23 24 25 26 27 28 29 30 31 32 33 34 35 36 37 38 39 40 41 42 43 44 45 46 47 48 49 50
000
ASUS44 KMEG 212110
RWRTN
TENNESSEE HOURLY STATE WEATHER ROUNDUP
NATIONAL WEATHER SERVICE MEMPHIS TN
300 PM CST TUE NOV 21 2017

TNZ002-004-019-021-049-052-054-088>092-212200-
WEST TENNESSEE

CITY           SKY/WX    TMP DP  RH WIND       PRES   REMARKS
MEMPHIS INTL   CLOUDY    60  37  42 VRB3      30.01F
NWS MEMPHIS      N/A     61 N/A N/A MISG        N/A
JACKSON        MOSUNNY   59  36  42 SW6       30.00F
DYERSBURG      MOSUNNY   58  37  45 VRB5      30.00F
SOMERVILLE     MOSUNNY   61  36  39 SW7       30.00S
COVINGTON      SUNNY     59  36  41 S5        30.00F
UNION CITY     SUNNY     57  37  47 S7        29.99F
BOLIVAR        SUNNY     61  34  36 SW5       30.00F
PARIS          SUNNY     55  36  47 SW10      29.99S
HUNTINGDON     SUNNY     59  34  38 SW9       29.99F
LEXINGTON      SUNNY     59  32  36 SW7       30.01S
SELMER         SUNNY     59  32  36 W6        30.00F
SAVANNAH       SUNNY     59  36  41 S6        30.01F
$$

TNZ008-025-027-028-033-062-065-066-212200-
NORTH MIDDLE TENNESSEE

CITY           SKY/WX    TMP DP  RH WIND       PRES   REMARKS
NASHVILLE      PTSUNNY   60  28  29 SW7       30.00F
PORTLAND       SUNNY     59  30  33 S8        29.98F
CLARKSVILLE    MOSUNNY   56  30  37 SW12      30.00R
SMYRNA         SUNNY     60  29  30 SW7       30.01F
COOKEVILLE     SUNNY     63  41  45 W6        29.98S
GALLATIN       SUNNY     61  30  31 VRB6      30.01F
CROSSVILLE     MOSUNNY   59  47  64 S9        29.99F
$$

TNZ061-075-076-078-094-096-097-212200-
SOUTH MIDDLE TENNESSEE

CITY           SKY/WX    TMP DP  RH WIND       PRES   REMARKS
FAYETTEVILLE   SUNNY     57  37  47 W7        30.00R
TULLAHOMA      SUNNY     61  39  44 W7        29.99S
WINCHESTER     SUNNY     63  43  48 W5        29.99S
MCMINNVILLE    SUNNY     61  39  44 W10       29.98F
COLUMBIA       SUNNY     59  27  29 SW8       29.99F
SHELBYVILLE    SUNNY     57  37  47 W7        30.00S
$$

TNZ017-018-042-046-047-212200-
NORTHEAST TENNESSEE

CITY           SKY/WX    TMP DP  RH WIND       PRES   REMARKS
TRI CITIES     MOSUNNY   63  44  50 S5        30.01F
ELIZABETHTON   PTSUNNY   61  45  55 NW6       30.01F
$$

TNZ012-013-036-069-073-074-212200-
CENTRAL EAST TENNESSEE

CITY           SKY/WX    TMP DP  RH WIND       PRES   REMARKS
KNOXVILLE      PTSUNNY   59  49  69 W8        30.00F
OAK RIDGE      MOSUNNY   59  48  67 VRB5      30.02F
DOWNTOWN KNOXV PTSUNNY   61  48  63 SW9G15    30.01F
GATLINBURG     CLOUDY    59  41  51 CALM      30.01S
MORRISTOWN     CLOUDY    59  43  55 NW6       30.01S
JACKSBORO      MOSUNNY   63  48  59 SW7       30.02F
$$

TNZ083-085-099-212200-
SOUTHEAST TENNESSEE

CITY           SKY/WX    TMP DP  RH WIND       PRES   REMARKS
CHATTANOOGA    PTSUNNY   60  50  69 SW7       30.02F
DAYTON         CLOUDY    61  52  72 VRB6      30.00F
$$

SKY/WX REPORTED AS FAIR MEANS FEW OR NO CLOUDS BELOW
12 THOUSAND FEET.





USA.gov is the U.S. government's official web portal to all federal, state and local government web resources and services.